Wind_Speed
10 12 13 16 19 20 19 15 13 13 12 11 11 12 14 12 10 11 12 14 16 15 12 7 2 1 2 3 4 6 6 6 7 8 8 8 8 8 8 8 9 8 6
8 9 12 13 15 18 20 21 16 13 13 13 13 14 14 13 12 13 14 15 16 16 15 14 11 9 8 8 8 8 8 9 10 10 10 10 10 10 10 10 10 9 8
10 6 9 12 12 14 17 20 22 18 16 14 14 14 13 13 14 15 14 14 15 16 16 16 16 15 14 13 11 11 11 11 12 12 12 13 12 11 11 11 10 10 10
14 7 9 11 10 10 13 16 20 22 20 16 14 13 13 14 15 16 15 15 15 16 17 16 17 17 16 15 14 14 14 14 15 15 15 14 12 13 12 12 11 11 10
18 12 8 9 8 7 9 12 16 19 20 20 16 13 13 15 16 16 16 17 18 19 18 18 19 19 18 17 17 17 17 16 16 16 15 14 14 14 14 13 13 13 11
19 16 9 8 8 6 6 8 12 14 16 18 19 18 15 14 14 14 15 16 17 17 17 16 17 17 16 16 16 16 15 15 15 15 14 14 14 14 14 13 13 13 13
21 18 13 11 10 8 6 5 7 9 11 13 16 18 20 16 14 14 14 15 15 15 15 15 15 15 14 15 14 14 15 15 15 15 16 17 17 16 14 13 13 13 12
21 19 14 13 13 11 8 6 5 6 7 9 11 13 15 17 18 17 14 12 12 12 11 12 12 12 12 12 13 13 14 15 15 15 16 17 17 18 17 16 14 13 13
23 21 17 16 15 14 11 9 7 6 4 5 5 6 8 11 13 14 16 16 14 14 13 12 12 12 12 12 13 13 14 14 14 15 15 16 16 17 17 18 16 14 13
21 22 22 20 18 17 15 12 10 9 6 3 2 2 3 4 7 8 8 9 9 11 11 12 12 13 13 13 13 13 14 14 15 15 15 15 15 16 16 17 16 15 13
19 20 21 22 21 19 17 15 13 12 9 7 7 5 5 3 2 1 0 1 2 3 3 3 4 5 6 9 11 12 13 13 13 15 16 16 17 17 17 16 17 16 15
23 21 21 21 22 22 19 18 16 15 13 12 12 11 10 9 8 7 7 7 7 8 8 8 9 9 9 10 10 10 10 11 11 11 12 13 14 16 17 17 17 18 17
17 19 20 20 21 21 20 17 16 16 15 15 15 15 14 13 12 12 12 12 12 12 13 13 13 13 14 14 15 15 15 16 16 16 16 15 16 16 17 18 18 18 18
15 16 15 14 15 17 17 16 15 14 14 15 16 15 14 14 14 14 15 15 16 16 16 16 16 17 17 18 19 19 19 18 18 19 19 19 19 18 18 18 18 18 18
17 15 14 14 14 13 14 14 13 13 14 16 16 15 15 14 14 15 16 17 17 17 18 18 19 20 21 21 21 21 21 21 21 21 21 22 23 22 21 20 20 19 19
17 14 13 13 13 13 12 12 12 13 14 15 15 15 15 15 16 16 17 18 19 20 21 20 19 20 20 21 21 21 22 23 23 23 24 25 24 25 23 22 21 21 21
18 17 14 15 14 13 14 15 15 17 17 16 16 17 17 17 18 17 18 18 19 19 19 19 20 21 22 23 23 23 24 24 24 24 24 24 24 25 25 24 23 23 22
20 18 18 17 17 18 20 21 21 21 20 20 20 20 20 21 20 20 19 20 22 22 23 23 24 25 26 27 26 25 26 27 27 26 26 25 25 25 24 24 24 24 24
24 24 24 24 24 25 25 25 25 25 25 25 25 24 24 23 23 23 23 23 25 27 27 27 28 29 29 28 29 29 30 29 29 30 28 27 28 27 27 27 27 27 26
23 23 23 24 24 24 25 26 27 29 28 28 27 26 26 25 25 26 27 27 29 30 30 30 31 32 32 32 33 34 33 34 35 32 31 30 29 29 29 29 29 29 29
26 26 27 27 27 27 26 26 26 27 27 28 27 27 27 27 27 28 29 29 30 31 32 32 34 35 35 35 38 38 38 38 36 34 34 33 31 31 30 29 30 30 30
30 30 31 30 30 29 29 28 28 28 29 28 28 29 30 31 32 32 33 33 35 36 35 35 37 39 41 40 42 40 41 37 35 33 33 33 32 32 31 31 31 31 32
31 32 31 30 30 30 30 29 29 30 31 31 31 32 33 34 34 35 35 36 37 39 39 39 40 39 41 41 38 38 40 41 39 37 35 34 33 32 34 36 37 37 37
25 27 30 31 31 31 30 29 30 31 32 32 33 34 35 35 35 36 37 38 39 39 40 39 39 39 40 42 40 38 38 40 42 44 40 37 33 32 33 35 37 36 40
26 26 27 29 31 32 32 33 34 34 34 35 35 35 35 37 37 37 37 38 38 38 37 37 36 36 38 38 36 36 36 36 37 38 41 40 39 38 37 37 37 37 39
33 32 32 34 34 34 35 35 36 37 37 37 36 35 34 35 36 36 36 35 35 35 34 34 35 35 34 34 34 36 36 35 35 38 41 42 43 41 38 38 36 37 38
Wind_Direction
128 103 95 84 75 67 62 62 61 57 55 51 48 45 44 41 41 42 46 58 64 69 73 85 122 260 305 322 357 7 9 8 9 16 19 15 11 5 0 357 0 10 16
130 102 103 96 81 70 63 60 64 65 62 57 54 54 52 49 49 53 60 62 64 66 67 66 67 73 68 61 50 42 39 35 31 27 22 18 11 3 4 7 9 15 18
156 117 103 109 91 78 66 59 59 61 61 57 55 58 57 57 58 58 63 63 62 63 64 64 68 71 71 70 66 55 45 40 37 34 30 25 20 18 17 17 16 17 13
165 146 110 119 106 88 69 59 53 54 58 60 60 63 64 64 63 65 66 68 68 68 66 67 69 72 72 69 65 59 54 50 46 41 38 35 29 26 23 18 19 21 15
173 168 130 135 129 104 78 63 53 48 53 56 61 66 70 70 71 72 72 73 73 71 71 71 71 71 70 68 65 61 57 53 49 44 39 39 38 34 31 25 23 19 18
178 173 161 162 160 140 101 76 64 57 48 49 55 59 64 71 74 75 75 75 74 74 72 72 71 69 67 65 60 57 54 48 42 36 29 26 24 24 23 17 13 13 10
185 178 176 184 186 175 151 110 88 76 67 58 54 52 56 60 65 68 71 71 72 72 71 71 69 66 63 60 54 48 45 41 36 32 30 28 24 18 13 9 6 2 3
193 190 187 193 198 198 182 162 131 111 103 81 65 55 53 53 56 57 58 60 61 60 58 59 58 55 51 48 44 40 39 36 33 28 26 24 21 17 12 7 2 352 350
200 197 199 201 206 207 200 193 182 173 149 113 97 84 58 49 51 50 50 49 48 47 48 48 47 44 41 38 35 32 28 25 22 20 18 15 13 11 7 4 360 354 347
201 202 203 208 210 214 211 213 206 201 199 185 169 145 115 83 41 37 42 39 35 32 32 31 29 30 27 23 25 23 20 16 13 9 6 4 2 0 0 358 357 352 346
204 204 211 214 215 217 215 219 221 223 223 228 234 235 237 241 246 239 333 343 340 347 323 327 340 354 1 3 4 359 358 359 357 357 0 357 353 351 349 348 350 350 345
224 219 215 218 220 219 218 221 225 232 237 242 246 250 256 261 264 268 274 275 275 278 285 292 296 296 299 299 301 307 312 313 316 322 329 333 339 342 341 339 340 343 343
201 207 214 218 220 220 224 226 229 234 239 247 252 254 257 260 262 263 265 267 270 272 275 279 284 287 289 291 292 295 296 300 304 308 310 311 315 320 327 332 332 332 335
181 185 191 198 209 216 221 224 227 233 240 248 254 259 262 264 266 267 269 272 274 275 277 279 282 285 286 288 289 290 292 291 292 295 298 300 301 302 306 312 318 323 323
192 187 188 193 198 206 215 223 228 234 241 247 254 260 264 266 269 270 270 272 274 275 274 277 281 283 284 285 287 288 288 287 288 289 290 290 293 295 297 300 304 307 310
199 197 202 203 207 212 218 226 238 246 250 254 257 260 265 269 269 270 271 273 275 275 277 280 282 282 282 284 286 287 287 287 287 287 286 286 289 291 293 293 295 297 300
220 220 215 215 223 226 233 242 248 252 257 261 265 268 267 265 265 267 268 270 270 270 273 276 279 282 285 286 286 286 285 285 286 285 284 285 287 288 291 294 295 293 291
227 230 233 237 240 243 244 249 254 259 260 264 266 270 270 267 269 270 269 264 261 264 269 274 278 282 285 285 285 287 287 286 284 283 283 285 285 285 286 289 292 292 290
234 239 244 247 247 247 248 249 252 256 260 263 267 271 270 269 268 267 266 263 264 267 271 275 279 282 280 281 283 286 287 286 285 284 284 283 282 282 283 284 287 288 288
242 246 249 251 253 254 253 256 258 261 264 266 267 268 268 269 270 270 269 267 265 267 271 275 278 279 282 285 286 285 287 286 283 282 281 282 282 283 282 281 283 285 285
252 255 257 258 260 260 258 258 260 263 263 263 266 267 268 269 270 270 270 269 268 270 271 273 276 279 282 286 287 289 289 284 283 284 283 281 279 280 280 280 280 279 278
257 259 260 261 261 263 266 267 266 266 267 269 269 270 271 272 274 272 270 269 270 272 274 274 279 281 283 286 287 289 288 285 284 285 282 282 280 278 276 276 275 275 275
252 255 257 259 262 264 267 269 270 272 274 276 276 275 275 276 275 276 277 277 277 277 278 278 280 282 285 284 285 286 289 290 293 288 284 283 282 281 278 276 272 273 273
253 254 253 256 259 261 264 267 269 270 271 272 272 273 273 273 272 272 272 273 274 276 278 279 278 277 278 280 280 282 285 287 291 293 293 291 288 285 283 280 276 275 275
251 251 253 256 261 265 268 269 271 272 273 274 274 273 271 271 272 272 272 272 274 275 276 276 276 275 276 278 282 282 282 284 285 288 292 294 290 287 287 286 282 280 278
252 254 256 259 262 265 267 269 271 272 273 273 272 270 269 268 269 270 271 271 272 273 273 274 275 275 275 277 277 276 277 278 281 285 287 289 290 290 291 290 290 286 285
Height
3186 3187 3188 3189 3190 3190 3190 3189 3189 3189 3189 3189 3189 3188 3187 3188 3187 3187 3185 3184 3185 3185 3186 3186 3187 3188 3189 3190 3191 3191 3191 3191 3191 3190 3190 3190 3189 3189 3189 3188 3187 3187 3186
3186 3187 3189 3190 3191 3192 3192 3191 3191 3191 3191 3190 3190 3189 3189 3190 3189 3188 3187 3187 3187 3187 3188 3188 3189 3189 3190 3191 3191 3192 3192 3192 3192 3191 3191 3191 3190 3190 3189 3188 3188 3187 3187
3186 3188 3189 3191 3192 3193 3193 3194 3193 3192 3191 3192 3192 3191 3191 3192 3191 3189 3189 3190 3189 3190 3190 3190 3190 3191 3191 3192 3193 3193 3193 3193 3193 3193 3192 3192 3191 3191 3190 3189 3188 3187 3187
3186 3188 3189 3191 3193 3194 3195 3195 3195 3194 3193 3193 3194 3194 3194 3193 3192 3192 3193 3192 3192 3192 3192 3192 3192 3192 3193 3193 3194 3194 3194 3194 3194 3194 3193 3193 3193 3192 3191 3190 3189 3188 3187
3186 3188 3190 3191 3194 3195 3195 3196 3197 3196 3197 3197 3196 3196 3195 3194 3194 3195 3195 3195 3194 3194 3194 3195 3195 3194 3195 3195 3195 3195 3195 3195 3195 3195 3195 3194 3193 3192 3191 3190 3189 3189 3188
3185 3187 3190 3192 3194 3195 3196 3197 3198 3198 3199 3199 3199 3198 3197 3197 3197 3197 3197 3197 3197 3197 3197 3197 3197 3197 3197 3197 3197 3197 3197 3197 3196 3196 3195 3194 3194 3193 3192 3191 3190 3189 3188
3184 3186 3189 3191 3193 3195 3196 3197 3198 3199 3200 3201 3200 3200 3199 3200 3199 3199 3199 3199 3199 3199 3199 3199 3199 3199 3199 3199 3199 3199 3199 3198 3198 3197 3196 3195 3194 3193 3193 3192 3191 3189 3188
3184 3186 3188 3190 3193 3195 3196 3197 3198 3199 3200 3201 3201 3202 3202 3202 3201 3201 3201 3201 3201 3201 3201 3201 3201 3201 3201 3201 3200 3200 3199 3199 3199 3198 3197 3196 3195 3194 3193 3192 3191 3190 3189
3182 3184 3187 3190 3192 3194 3195 3197 3198 3199 3200 3200 3201 3201 3203 3203 3202 3202 3202 3202 3202 3203 3203 3202 3202 3202 3202 3202 3201 3201 3200 3200 3199 3199 3197 3197 3195 3195 3193 3192 3191 3190 3189
3180 3182 3185 3188 3191 3193 3194 3196 3197 3198 3199 3200 3200 3201 3202 3202 3202 3203 3203 3204 3204 3204 3204 3204 3204 3203 3203 3202 3202 3201 3201 3201 3200 3199 3198 3197 3196 3195 3194 3192 3190 3189 3188
3177 3180 3183 3186 3189 3191 3193 3195 3196 3197 3198 3199 3200 3201 3201 3202 3202 3202 3202 3203 3203 3204 3204 3204 3203 3203 3203 3202 3202 3201 3201 3201 3200 3199 3198 3197 3196 3194 3193 3192 3190 3189 3187
3175 3178 3180 3184 3186 3189 3191 3193 3195 3196 3197 3198 3199 3200 3200 3201 3201 3201 3201 3202 3203 3203 3203 3202 3202 3202 3202 3201 3201 3201 3200 3199 3198 3198 3197 3196 3194 3193 3191 3190 3189 3188 3186
3172 3175 3178 3181 3184 3186 3188 3191 3192 3194 3195 3196 3197 3197 3198 3199 3199 3199 3200 3200 3201 3201 3201 3201 3200 3200 3200 3199 3199 3199 3198 3197 3196 3195 3195 3193 3192 3191 3189 3188 3187 3185 3184
3171 3172 3175 3178 3181 3184 3186 3188 3189 3191 3192 3193 3194 3195 3196 3196 3196 3197 3197 3198 3198 3198 3198 3198 3197 3197 3197 3196 3196 3195 3195 3194 3193 3192 3191 3189 3189 3188 3187 3185 3184 3183 3182
3170 3172 3175 3177 3179 3181 3183 3185 3187 3188 3189 3190 3191 3192 3192 3193 3193 3193 3194 3194 3194 3194 3194 3194 3194 3194 3193 3192 3192 3191 3190 3189 3189 3188 3187 3185 3185 3184 3183 3183 3181 3180 3179
3168 3170 3173 3175 3177 3179 3181 3182 3183 3185 3186 3187 3187 3188 3188 3189 3190 3190 3190 3191 3191 3190 3190 3190 3190 3190 3189 3189 3188 3187 3185 3185 3184 3184 3183 3181 3181 3180 3179 3178 3177 3177 3176
3166 3167 3171 3172 3174 3177 3178 3179 3180 3181 3183 3183 3184 3184 3185 3185 3186 3186 3187 3187 3187 3186 3186 3186 3185 3185 3185 3184 3183 3182 3181 3179 3179 3178 3177 3177 3177 3176 3175 3173 3173 3172 3171
3161 3164 3167 3170 3172 3174 3175 3175 3177 3178 3179 3180 3180 3181 3181 3181 3181 3182 3183 3183 3182 3182 3182 3181 3180 3180 3180 3178 3178 3176 3175 3174 3173 3173 3173 3172 3172 3171 3170 3168 3167 3166 3165
3158 3160 3163 3165 3167 3169 3170 3171 3172 3173 3174 3175 3176 3176 3176 3176 3176 3177 3178 3178 3177 3177 3176 3176 3175 3174 3174 3173 3171 3171 3169 3168 3168 3167 3168 3167 3166 3165 3164 3163 3161 3160 3159
3154 3157 3158 3159 3161 3163 3164 3165 3167 3168 3169 3170 3171 3171 3171 3171 3171 3171 3171 3172 3171 3170 3170 3170 3168 3168 3167 3166 3165 3163 3163 3162 3160 3160 3160 3160 3159 3159 3157 3157 3155 3154 3153
3149 3152 3153 3154 3155 3157 3158 3160 3161 3162 3163 3164 3164 3164 3165 3165 3165 3164 3165 3165 3165 3164 3164 3163 3161 3160 3160 3159 3155 3155 3154 3153 3152 3152 3152 3152 3152 3151 3150 3149 3148 3147 3146
3144 3146 3147 3148 3149 3150 3152 3153 3154 3155 3156 3157 3157 3158 3157 3157 3157 3157 3157 3157 3157 3155 3155 3155 3154 3152 3151 3151 3148 3145 3142 3145 3145 3145 3144 3143 3143 3142 3142 3141 3140 3139 3138
3138 3140 3141 3143 3144 3144 3145 3146 3146 3147 3147 3148 3149 3150 3149 3149 3148 3148 3148 3147 3147 3146 3147 3147 3146 3145 3142 3142 3142 3139 3134 3132 3133 3134 3135 3135 3134 3134 3133 3132 3131 3130 3129
3131 3133 3135 3137 3138 3139 3139 3140 3141 3141 3141 3142 3142 3142 3142 3141 3141 3141 3140 3139 3139 3138 3137 3138 3137 3135 3134 3133 3133 3132 3131 3127 3124 3121 3121 3123 3125 3124 3123 3122 3121 3121 3120
3126 3127 3128 3130 3131 3131 3132 3133 3133 3133 3134 3134 3134 3134 3134 3133 3133 3133 3132 3132 3131 3130 3130 3129 3128 3127 3126 3125 3125 3124 3123 3121 3120 3117 3112 3112 3113 3114 3114 3112 3111 3111 3110
3119 3121 3122 3123 3123 3124 3124 3124 3125 3125 3125 3125 3125 3126 3126 3126 3125 3125 3124 3124 3123 3122 3122 3121 3120 3119 3119 3118 3118 3116 3116 3114 3113 3111 3107 3104 3103 3104 3104 3102 3102 3101 3099